Station BUZM3 - Buzzards Bay, MA Image indicating link to RSS feed of recent meteorological observations for station BUZM3


Conditions at BUZM3 as of
(10:00 pm EDT on 04/18/2024)
0200 GMT on 04/19/2024:
     

Click on the graph icon in the table below to see a time series plot of the last five days of that observation.

5-day plot - Wind Direction Wind Direction (WDIR):NNE ( 30 deg true )
5-day plot - Wind Speed Wind Speed (WSPD):5.7 m/s
5-day plot - Wind Gust Wind Gust (GST):6.2 m/s
5-day plot - Atmospheric Pressure Atmospheric Pressure (PRES):1022.0 mb
5-day plot - Pressure Tendency Pressure Tendency (PTDY): +0.7 mb ( Rising )
5-day plot - Air Temperature Air Temperature (ATMP): 7.1 °C
5-day plot - Wind Chill Wind Chill (CHILL): 3.7 °C
5-day plot - Wind Speed at 10 Meters Wind Speed at 10 meters (WSPD10M): 5 m/s
5-day plot - Wind Speed at 20 Meters Wind Speed at 20 meters (WSPD20M): 6 m/s
5-day plot -  Wind Speed, Wind Gust and Atmospheric Pressure Combined plot of Wind Speed, Gust, and Air Pressure
Continuous Winds
TIME
(EDT)
5-day plot - Wind Direction WDIR 5-day plot - Wind Speed WSPD
10:00 pmNE ( 42 deg ) 5.7 m/s
9:50 pmNE ( 53 deg ) 6.7 m/s
9:40 pmNE ( 34 deg ) 5.1 m/s
9:30 pmNE ( 44 deg ) 5.7 m/s
9:20 pmENE ( 62 deg ) 7.2 m/s
9:10 pmENE ( 66 deg ) 7.7 m/s
 
Peak gust during the measurement hour
TIME
(EDT)
5-day plot - Gust Direction GDR 5-day plot - Gust Speed GST
9:01 pmENE ( 70 deg ) 8.8 m/s
Previous observations
TIME
(EDT)
5-day plot - Wind Direction
WDIR
 
5-day plot - Wind Speed
WSPD
m/s
5-day plot - Wind Gust
GST
m/s
5-day plot - Wave Height
WVHT
m
5-day plot - Dominant Wave Period
DPD
sec
5-day plot - Average Wave Period
APD
sec
5-day plot - Mean Wave Direction
MWD
 
5-day plot - Atmospheric Pressure
PRES
mb
5-day plot - Pressure Tendency
PTDY
mb
5-day plot - Air Temperature
ATMP
°C
5-day plot - Water Temperature
WTMP
°C
5-day plot - Dew Point
DEWP
°C
5-day plot - Salinity
SAL
psu
5-day plot - Visibility
VIS
km
5-day plot - Tide (above MLLW)
TIDE
m
2024-04-18 09:00 pmENE 8 9----1021.2 +0.0 7.0-----
2024-04-18 08:00 pmNNE 8 9----1021.7 +1.0 7.0-----
2024-04-18 07:00 pm NE 9 9----1021.3 +1.1 7.9-----
2024-04-18 06:00 pmNNE 8 8----1021.1 +1.1 8.0-----
2024-04-18 05:00 pmENE 9 9----1020.7 +1.0 8.0-----
2024-04-18 04:00 pmENE 9 9----1020.2 +0.0 7.6-----
2024-04-18 03:00 pmENE 9 10----1020.0 -0.6 7.5-----
2024-04-18 02:00 pmENE 9 10----1019.7 -0.8 7.4-----
2024-04-18 01:00 pmENE 8 9----1020.2 +0.0 7.2-----
2024-04-18 12:00 pm E 10 11----1020.6 +0.9 7.1-----
2024-04-18 11:00 am E 10 11----1020.5 +0.6 7.2-----
2024-04-18 10:00 am E 11 12----1020.1 +0.8 7.1-----
2024-04-18 09:00 am E 12 13----1019.7 +0.6 7.4-----
2024-04-18 08:00 am E 10 11----1019.9 +0.0 7.7-----
2024-04-18 07:00 am E 10 11----1019.3 +0.3 7.9-----
2024-04-18 06:00 am E 9 10----1019.1 -0.4 7.5-----
2024-04-18 05:00 am E 7 7----1019.7 -0.7 7.4-----
2024-04-18 04:00 amESE 7 7----1019.0 -2.1 6.9-----
2024-04-18 03:00 am E 5 5----1019.5 -2.2 7.0-----
2024-04-18 02:00 am E 6 7----1020.4 -2.1 6.8-----
2024-04-18 01:00 am E 8 8----1021.1 -1.0 6.7-----
2024-04-18 12:00 amESE 7 8----1021.7 +0.0 6.9-----
2024-04-17 11:00 pm SE 5 5----1022.5 +1.8 6.9-----
2024-04-17 10:00 pm SE 6 6----1022.1 +1.3 6.9-----